Location: Breitenworbis
(51.4119°N, 10.4275°E)
Time: 00:01:29
(UTC+00:00)

Daily predictions for brighter satellites

Satellite Brightness Start Highest point End
(mag) Time Altitude Azimuth Time Altitude Azimuth Time Altitude Azimuth
CENTAUR R/B 4.4 00:36:55 29° NNE 00:36:55 29° NNE 00:40:58 10° NE
ATLAS 3B R/B 3.9 01:38:53 35° NNE 01:38:53 35° NNE 01:42:58 10° NE
USA 267 4.2 01:40:58 10° ENE 01:45:13 44° NE 01:45:13 44° NE
Resurs 1-4 Rocket 4.5 01:50:52 10° N 01:52:00 16° N 01:52:00 16° N
Cosmos 2082 Rocket 4.3 02:08:03 18° ESE 02:08:47 19° E 02:12:36 10° ENE
Cosmos 1980 Rocket 3.9 02:14:46 26° E 02:14:46 26° E 02:17:34 10° ESE
CZ-2D R/B 4.4 02:18:59 10° N 02:20:01 15° N 02:20:01 15° N
CENTAUR R/B 4.1 02:24:04 28° NNW 02:26:14 33° N 02:33:30 10° ENE
ATLAS CENTAUR R/B 4.2 02:28:41 15° ENE 02:28:41 15° ENE 02:29:50 10° ENE
Cosmos 1833 Rocket 3.7 02:32:37 43° E 02:32:37 43° E 02:37:08 10° NE
ADEOS II 4.0 02:34:22 10° N 02:36:18 22° N 02:36:18 22° N
SL-16 R/B 4.1 02:36:09 10° NNW 02:40:56 27° NE 02:45:41 10° E
BREEZE-M DEB (TANK) 4.5 02:45:51 54° SSE 02:45:51 54° SSE 02:57:51 10° ESE
CZ-2C R/B 3.5 02:43:55 10° NNE 02:48:28 40° E 02:48:28 40° E
Lacrosse 5 2.8 02:57:41 43° NNE 02:57:41 43° NNE 03:01:40 10° ENE
IDEFIX/ARIANE 42P 3.8 02:57:24 10° N 03:00:23 33° N 03:00:23 33° N
Lacrosse 4 Rocket 4.3 03:01:57 10° N 03:04:13 13° NNE 03:06:29 10° NE
Geosat 4.3 03:00:15 10° NE 03:04:59 62° E 03:04:59 62° E
ALOS 3.9 03:01:56 10° NNE 03:06:06 31° E 03:08:40 19° SE
Cosmos-2242 3.8 03:15:17 49° NE 03:15:17 49° NE 03:18:47 10° NNE
NOSS 2-3 (D) 4.0 03:19:41 62° E 03:19:41 62° E 03:24:17 10° NE
PAYLOAD A 4.0 03:14:32 10° NNE 03:19:39 80° ESE 03:19:59 76° SSE
NOSS 3-1 (C) 3.1 03:19:38 79° SW 03:20:01 89° NW 03:26:37 10° NE
Cosmos 2278 3.5 03:21:44 81° WSW 03:21:47 81° WSW 03:27:30 10° SSE
Cosmos 220 Rocket 4.4 03:24:30 61° E 03:24:30 61° E 03:28:36 10° SE
Cosmos 389 Rocket 4.2 03:25:33 32° ENE 03:25:33 32° ENE 03:27:55 10° NNE
Cosmos 1331 Rocket 4.3 03:22:39 10° NNW 03:27:51 66° ENE 03:32:59 10° SE
ATLAS 3B R/B 3.9 03:26:07 24° NW 03:28:28 30° N 03:34:28 10° NE
X-37B 3.5 03:31:20 14° SE 03:31:20 14° SE 03:31:57 10° ESE
USA 267 3.6 03:23:53 10° ENE 03:30:14 55° N 03:32:34 38° WNW
COSMOS 2406 3.1 03:31:36 66° W 03:31:58 68° WNW 03:37:46 10° NNE
Cosmos 1932 4.3 03:32:30 55° WNW 03:33:41 68° SW 03:39:50 10° SSE
Cosmos 1869 4.1 03:38:25 33° SSE 03:39:47 48° E 03:43:39 10° NNE
Cosmos 2360 Rocket 3.9 03:35:03 10° NNW 03:40:06 31° NE 03:45:08 10° ESE
NOSS 2-3 (C) 3.5 03:40:02 84° W 03:40:09 86° NW 03:45:21 10° NE
Genesis I 4.2 03:40:11 37° SE 03:40:35 39° ESE 03:44:14 10° NE
Spot 4 Rocket 4.4 03:36:57 10° N 03:41:25 47° NW 03:41:25 47° NW
H-2A R/B 2.1 03:38:02 10° SSE 03:42:22 77° ENE 03:46:39 10° NNW
SeaSat 1 2.9 03:37:53 10° SSE 03:41:24 43° S 03:41:24 43° S
SL-08 ROCKET BODY 4.5 03:38:02 10° N 03:44:06 79° ENE 03:50:15 10° SSE
ARIANE 5 R/B 3.7 03:40:51 10° N 03:43:58 28° NW 03:43:58 28° NW
Meteor 2-8 Rocket 4.3 03:43:35 37° SSW 03:46:06 74° WNW 03:52:16 10° N
FENGYUN 3A 3.8 03:41:55 10° NNE 03:47:23 73° ESE 03:52:12 13° S
ISS -1.8 03:50:12 23° SE 03:50:12 23° SE 03:52:56 10° E
SL-08 R/B 4.4 03:44:52 10° N 03:51:08 90° WSW 03:57:18 10° S
Cosmos 2082 Rocket 2.1 03:49:56 40° SSW 03:52:07 88° WNW 03:57:54 10° NNE
MSX 4.5 03:47:26 10° N 03:52:31 35° WNW 03:52:31 35° WNW
Cosmos 1302 Rocket 4.5 03:50:56 10° NNW 03:56:09 61° ENE 04:01:21 10° SE
Meteor 2-3 Rocket 3.8 03:50:42 10° NNW 03:56:14 54° W 04:01:48 10° S
Cosmos 1980 Rocket 2.5 03:56:42 44° WSW 03:56:42 44° WSW 04:01:39 10° S
USA 229 DEB 3.6 03:54:21 39° WSW 03:57:00 79° NW 04:04:01 10° NE
USA 229 3.6 03:54:26 39° SW 03:57:06 79° NW 04:04:07 10° NE
Cosmos 1244 Rocket 4.4 03:54:31 10° NNW 04:00:35 60° W 04:06:38 10° S
Cosmos 2322 Rocket 2.6 04:00:12 10° NNW 04:05:50 64° NE 04:11:28 10° SE
ATLAS CENTAUR R/B 1.2 04:04:52 44° NW 04:06:04 87° NE 04:10:16 10° SE
Iridium 4 Rocket 3.3 04:03:36 17° SSW 04:07:36 65° W 04:12:21 10° N
CZ-4B R/B 2.1 04:05:39 10° SSE 04:08:46 51° ENE 04:11:51 10° N
METEOR-M 4.1 04:04:26 10° NNE 04:09:50 83° ESE 04:15:11 10° SSW
ADEOS 4.0 04:06:30 10° NNE 04:11:43 63° ESE 04:16:53 10° S
NOSS 3-1 (A) 3.3 04:10:50 34° WSW 04:13:27 72° NW 04:20:09 10° NE
Cosmos 1110 Rocket 4.1 04:08:44 10° NNW 04:13:54 53° WSW 04:18:59 10° S
Cosmos 1833 Rocket 3.2 04:14:19 33° W 04:15:50 40° NW 04:21:08 10° NNE
COSMO-SKYMED 1 2.6 04:14:05 10° SSE 04:18:26 80° ENE 04:22:48 10° NNW
CENTAUR R/B 3.9 04:11:24 10° NW 04:18:44 49° NNE 04:27:04 10° ESE
Meteor 2-15 Rocket 4.4 04:13:23 10° SSW 04:19:32 74° WNW 04:25:43 10° N
CZ-2C R/B 4.4 04:16:54 10° N 04:19:02 21° NW 04:19:02 21° NW
Cosmos 1862 3.3 04:19:11 10° N 04:23:17 86° E 04:27:20 10° S
Cosmos 1743 Rocket 3.8 04:19:12 10° N 04:23:41 72° ENE 04:28:10 10° SSE
CSL-04 DEB 4.2 04:20:17 10° SSE 04:24:21 80° WSW 04:28:22 10° NNW
CZ-2C R/B 4.4 04:20:06 10° SE 04:25:05 35° ENE 04:30:07 10° N
SL-16 R/B 2.1 04:20:00 10° NNW 04:25:42 80° WSW 04:31:22 10° SSE
CZ-2C R/B 3.1 04:22:19 10° N 04:26:45 33° WNW 04:27:51 30° W
CREW DRAGON DEMO-1 DEB 4.5 04:28:39 20° S 04:28:39 20° S 04:30:13 10° SSE
Meteor 1-31 Rocket 2.8 04:24:30 10° NNE 04:28:27 82° ESE 04:32:20 10° SSW
Cosmos 1386 Rocket 4.5 04:23:56 10° NNW 04:30:20 70° W 04:36:40 10° S
ERS-2 3.2 04:27:10 10° SE 04:30:39 46° ENE 04:34:10 10° N
PSLV R/B 4.2 04:27:15 10° N 04:31:10 34° WNW 04:32:10 30° W
Cosmos 2219 Rocket 3.9 04:26:34 10° NNW 04:31:34 31° NE 04:36:33 10° ESE
Cosmos 1553 Rocket 4.0 04:26:32 10° SSW 04:32:52 63° WNW 04:39:11 10° N
Meteor 1-4 Rocket 3.4 04:29:15 10° S 04:32:54 53° E 04:36:31 10° NNE
Cosmos 1766 Rocket 4.3 04:29:48 10° NNW 04:33:43 30° W 04:37:37 10° SSW
Cosmos 1417 Rocket 4.4 04:28:05 10° SSW 04:34:17 70° WNW 04:40:35 10° N
NOSS 2-3 (E) 4.4 04:33:18 28° W 04:35:16 43° NNW 04:40:28 10° NE
Cosmos 1048 Rocket 4.2 04:33:43 23° WSW 04:36:38 48° WNW 04:41:39 10° NNE
Lacrosse 5 2.5 04:36:53 18° WNW 04:40:25 49° NNE 04:45:20 10° E
CZ-4B R/B 3.6 04:37:05 10° N 04:41:03 74° WNW 04:44:48 10° SSW
Cosmos 494 Rocket 4.0 04:36:53 15° SW 04:41:07 58° WNW 04:46:15 10° NNE
Cosmos 1606 4.1 04:37:38 10° SSE 04:41:19 43° E 04:45:02 10° NNE
ALOS 2.7 04:39:15 10° N 04:43:36 39° WNW 04:47:11 14° SW
Lacrosse 4 Rocket 2.9 04:39:54 10° NNW 04:44:09 39° NE 04:48:21 10° ESE
USA 238 DEB 4.3 04:40:11 10° NW 04:47:15 62° NE 04:54:40 10° ESE
USA 238 4.3 04:40:17 10° NW 04:47:21 61° NE 04:54:45 10° ESE
Cosmos 1269 Rocket 4.1 04:45:05 10° SSW 04:50:23 85° ESE 04:55:43 10° NNE
Cosmos 1408 Rocket 4.1 04:47:13 10° NNW 04:51:18 36° W 04:55:21 10° SSW
PSLV R/B 4.0 04:47:27 10° SSE 04:51:40 83° ENE 04:55:54 10° NNW
Cosmos-2242 4.5 04:52:09 18° WNW 04:52:28 18° WNW 04:55:32 10° NNW
Aureole 3 Rocket 4.4 04:53:02 15° NW 04:53:02 15° NW 04:55:05 10° NNW
Cosmos 1484 Rocket 3.6 04:51:17 10° N 04:54:32 28° WNW 04:56:28 18° WSW
SAR-Lupe-1 4.3 04:52:40 10° SSE 04:56:13 75° ENE 04:59:49 10° NNW
deb Chang Zheng 4 3.7 04:52:49 10° NNE 04:57:06 76° ESE 05:01:22 10° S
Cosmos 389 Rocket 4.0 04:59:23 18° WNW 04:59:30 18° WNW 05:01:57 10° NNW
Cosmos 1689 Rocket 2.0 04:57:47 10° SSE 05:00:36 78° ENE 05:03:27 10° NNW
Cosmos 1500 Rocket 3.7 04:59:23 10° NNW 05:03:32 47° W 05:07:41 10° SSW
MOS 1 Rocket 3.5 04:59:56 10° SSW 05:03:57 39° W 05:08:06 10° NNW
X-37B 2.3 05:03:37 14° SW 05:05:25 22° SSW 05:07:56 10° SE
SKYMED 2 4.1 05:02:35 10° SSW 05:06:36 36° W 05:10:38 10° NNW
H-2A R/B 2.7 05:04:18 10° NNE 05:08:13 83° WNW 05:12:07 10° SSW
Cosmos 1842 Rocket 4.0 05:07:14 10° SW 05:11:21 40° WNW 05:15:28 10° N
Cosmos 2333 Rocket 2.9 05:05:52 10° NNW 05:11:33 57° NE 05:17:15 10° SE
NOSS 3-1 (C) 4.4 05:07:01 14° W 05:11:42 36° NNW 05:18:09 10° NE
Sich 1 3.1 05:07:27 10° N 05:11:56 90° SW 05:16:22 10° S
USA 267 3.5 05:06:24 10° E 05:12:53 67° NNE 05:19:23 10° WNW
Cosmos 2221 3.0 05:09:33 10° SW 05:13:40 39° WNW 05:17:48 10° N
S3M 4.3 05:10:13 10° SW 05:16:01 44° WNW 05:21:54 10° N
DMSP B5D1-3 4.5 05:11:03 10° S 05:16:07 75° WSW 05:21:17 10° NNW
SJ-12 4.4 05:13:23 10° N 05:17:13 39° WNW 05:21:01 10° SW
Cosmos 2184 Rocket 4.5 05:10:58 10° N 05:17:14 68° ENE 05:23:32 10° SSE
Genesis I 4.0 05:15:05 13° W 05:18:12 35° NW 05:21:49 10° NNE
H-2A R/B 3.7 05:16:30 10° WSW 05:18:50 14° W 05:21:11 10° NW
YAOGAN 6 2.5 05:15:26 10° NNE 05:19:02 88° WNW 05:22:34 10° SSW
Cosmos 2237 Rocket 4.1 05:15:47 10° NNW 05:20:37 27° NE 05:25:24 10° E
Meteor PRIRODA 3.7 05:17:13 10° N 05:20:52 57° WNW 05:24:30 10° SSW
ATLAS 3B R/B 3.9 05:14:52 10° NW 05:21:03 35° NNE 05:27:28 10° E
SeaSat 1 4.3 05:20:43 10° WSW 05:21:12 10° W 05:21:16 10° W
NOSS 3-2 (A) 4.1 05:16:26 10° NW 05:23:48 87° SW 05:32:14 10° SE
Cosmos 2360 Rocket 2.2 05:18:54 10° NW 05:24:32 64° WSW 05:30:08 10° SSE
Cosmos 1992 Rocket 4.0 05:20:22 10° NNW 05:25:33 64° WSW 05:30:41 10° S
Envisat 3.0 05:21:32 10° NNE 05:26:40 84° WNW 05:31:45 10° SSW
ISS -3.6 05:23:19 10° WSW 05:26:40 72° SSE 05:30:02 10° E
NOSS 2-2 (C) 3.1 05:23:34 10° SW 05:27:04 83° NW 05:31:06 10° NE
Cosmos 1633 Rocket 3.4 05:24:18 10° N 05:28:45 71° ENE 05:33:09 10° SSE
SL-16 R/B 4.5 05:30:01 10° NNW 05:33:55 18° NNE 05:37:48 10° ENE
Cosmos 1709 Rocket 4.4 05:28:43 10° NNW 05:34:35 41° W 05:40:28 10° SSW
COSMOS 2487 4.4 05:31:52 10° S 05:34:59 34° ESE 05:38:08 10° NE
Cosmos 2082 Rocket 3.4 05:32:26 10° W 05:37:02 24° NW 05:41:38 10° NNE
Cosmos 2251 Rocket 4.1 05:33:12 10° S 05:38:28 66° ESE 05:43:49 10° NNE
COSMOS 2428 3.2 05:34:23 10° NNW 05:40:06 67° NE 05:45:47 10° SE
Okean O Rocket 3.1 05:36:51 10° NNE 05:41:02 43° E 05:45:12 10° S
